DELTA 1 DEB, 12542

Orbit data source: Space-Track

DELTA 1 DEB, 12542 is space debris in SSO originally from a launch on Thu, 29 Jul 1976 UTC launched from the Air Force Western Test Range (AFWTR). Debris objects in space refer to the collection of defunct objects orbiting the Earth. Examples of debris include non-operational satellites, rocket bodies, and fragments generated from explosions, collisions, or faulty payload assembly.

Loading next visibility...
Identifier
12542, 1976-077DX
Orbit
SSO
Country
Flag of USUS
Related business
Manufacturer
Unknown
Mission
Spacecraft
Bus & Motor
Unknown
Mass
Unknown
Launch date (UTC)
1976-07-29 (50 years ago)
Launch vehicle
Unknown
Launch site
Air Force Western Test Range (AFWTR)
Object type
Payload
Rocket body
Debris
Shape & HBR
Unknown shape, 0.1 m
Radar Cross Section
Medium (>0.1 m² and <1 m²)

Expand to show TLE details & history
Last TLE update: 7 hours ago

TLE from 7 hours ago
0 DELTA 1 DEB
1 12542U 76077DX  26104.89033016  .00000003  00000-0  30909-3 0  9991
2 12542 101.9469  88.5322 0060790  45.3169 343.0537 12.52388523 70162
Epoch: 2026-04-14T21:22Z
TLE epoch observation values (Epoch: 2026-04-14T21:22:04.525Z)
Latitude
27.54362°
Longitude
-81.35081°
Altitude
1,412.067 km
Speed
7.178 km/s
True Right ascension
05h 28m 54s
True Declination
27° 24' 53"
Sunlit
Object was in daylight at epoch
Visualization orbit readout
Latitude
Unknown
Longitude
Unknown
Altitude
Unknown
Speed
Unknown
Apparent Right ascension
Unknown
Apparent Declination
Unknown
Sunlit
N/A
Visualization observer readout
Local Sidereal Time
10:37:26
Azimuth
Unknown
Elevation
Unknown
Doppler factor
Unknown
Orbital elements
Apogee altitude
1,499.675 km
Perigee altitude
1,404.476 km
Semi-major axis
7,830.212 km
Eccentricity
0.00608
Inclination
101.9469°
RAAN
88.5322°
Arg. of periapsis
45.3169°
True anomaly
342.84917°
Mean anomaly
343.0537°
Eccentric anomaly
342.95159°
Mean motion
3.13244 °/min
Orbital period
114.93 mins
BSTAR
0.00030909
Loading maneuver chart data...
Computing Atmospheric mass density...
Loading historical data...
Loading historical data...
Loading historical data...
Loading historical data...
Loading historical data...
Loading historical data...
Loading historical data...

Documentation

Showing up to 5 results
|